Weather History for KEFD - January, 2012

Change the Weather History Date:

Thursday, January 12, 2012

  Actual Average Record
Temperature  
Mean Temperature 49 °F -  
Max Temperature 59 °F 62 °F 78 °F (2000)
Min Temperature 39 °F 44 °F 30 °F (2011)
Degree Days  
Heating Degree Days 16    
Moisture  
Dew Point 27 °F    
Average Humidity 47    
Maximum Humidity 70    
Minimum Humidity 26    
Precipitation  
Precipitation 0.00 in - - ()
Sea Level Pressure  
Sea Level Pressure 30.14 in    
Wind  
Wind Speed 15 mph (NW)    
Max Wind Speed 24 mph    
Max Gust Speed 30 mph    
Visibility 10 miles    
Events      
Averages and records for this station are not official NWS values.
T = Trace of Precipitation, MM = Missing Value Source: NWS Daily Summary

Daily Weather History Graph

Daily Weather History Graph

Search for Another Location

Airport or City:

Trip Planner

Search our weather history database for the weather conditions in past years. The results will help you decide how hot, cold, wet, or windy it might be!

Date:

Astronomy

Jan. 12, 2012 Rise Set
Actual Time 7:16 AM CST 5:41 PM CST
Civil Twilight 6:50 AM CST 6:06 PM CST
Nautical Twilight 6:21 AM CST 6:36 PM CST
Astronomical Twilight 5:52 AM CST 7:05 PM CST
Moon 9:25 PM CST (1/12) 9:19 AM CST (1/12)
Length of Visible Light 11h 16m
Length of Day
10h 24m
Waning Gibbous, 87% of the Moon is Illuminated
Jan 12
Waning Gibbous
Jan 16
Last Quarter
Jan 23
New
Jan 30
First Quarter
Feb 7
Full

Hourly Weather History & Observations

Time (CST) Temp. Windchill Dew Point Humidity Pressure Visibility Wind Dir Wind Speed Gust Speed Precip Events Conditions
12:50 AM 59.0 °F - 48.2 °F 67% 29.86 in 10.0 mi WNW 11.5 mph - N/A   Partly Cloudy
1:50 AM 57.2 °F - 42.8 °F 59% 29.89 in 10.0 mi WNW 11.5 mph - N/A   Clear
2:50 AM 53.6 °F - 41.0 °F 62% 29.94 in 10.0 mi NW 13.8 mph - N/A   Clear
3:50 AM 50.0 °F - 39.2 °F 66% 29.97 in 10.0 mi NW 13.8 mph - N/A   Clear
4:50 AM 48.2 °F - 35.6 °F 62% 30.00 in 10.0 mi NW 15.0 mph - N/A   Partly Cloudy
5:50 AM 46.4 °F 39.5 °F 33.8 °F 62% 30.04 in 10.0 mi NNW 17.3 mph - N/A   Scattered Clouds
6:50 AM 44.6 °F 37.2 °F 33.8 °F 66% 30.08 in 10.0 mi NNW 17.3 mph 28.8 mph N/A   Scattered Clouds
7:50 AM 42.8 °F 34.3 °F 33.8 °F 70% 30.15 in 10.0 mi NW 19.6 mph 28.8 mph N/A   Scattered Clouds
8:50 AM 42.8 °F 33.8 °F 33.8 °F 70% 30.18 in 10.0 mi NNW 21.9 mph 29.9 mph N/A   Scattered Clouds
9:50 AM 46.4 °F 38.1 °F 33.8 °F 62% 30.22 in 10.0 mi NNW 24.2 mph 29.9 mph N/A   Mostly Cloudy
10:50 AM 46.4 °F 38.3 °F 21.2 °F 37% 30.21 in 10.0 mi NW 23.0 mph 27.6 mph N/A   Mostly Cloudy
11:50 AM 48.2 °F - 21.2 °F 34% 30.21 in 10.0 mi NW 21.9 mph 27.6 mph N/A   Mostly Cloudy
12:50 PM 50.0 °F - 21.2 °F 32% 30.20 in 10.0 mi NW 13.8 mph 23.0 mph N/A   Mostly Cloudy
1:50 PM 50.0 °F - 15.8 °F 26% 30.19 in 10.0 mi NW 18.4 mph - N/A   Mostly Cloudy
2:50 PM 50.0 °F - 15.8 °F 26% 30.18 in 10.0 mi NW 15.0 mph - N/A   Overcast
3:50 PM 50.0 °F - 15.8 °F 26% 30.18 in 10.0 mi NW 17.3 mph - N/A   Overcast
4:50 PM 46.4 °F 40.4 °F 15.8 °F 29% 30.21 in 10.0 mi NW 13.8 mph - N/A   Overcast
6:50 PM 44.6 °F 39.2 °F 15.8 °F 31% 30.24 in 10.0 mi NW 10.4 mph - N/A   Mostly Cloudy
7:50 PM 44.6 °F 38.8 °F 15.8 °F 31% 30.27 in 10.0 mi NW 11.5 mph - N/A   Mostly Cloudy
10:50 PM 39.2 °F 33.0 °F 15.8 °F 39% 30.30 in 10.0 mi North 9.2 mph - N/A   Mostly Cloudy
11:50 PM 39.2 °F 37.0 °F 15.8 °F 39% 30.32 in 10.0 mi NNW 3.5 mph - N/A   Scattered Clouds